www.pogodaiklimat.ru

Погода и климат >> Архив погоды >> Россия >> Красноярский край >> Шарыпово


ПОГОДА в Шарыпово

  • Прогноз погоды в Шарыпово
  • Монитор погоды в Шарыпово

АРХИВ ПОГОДЫ в Шарыпово

Время (UTC), дата Ветер
(напр.,м/с)
 
Видим.   Явления Облачность Т
(С)
Тd
(С)
f
(%)
Тe
(С)
Тes
(С)
Комфортность P
(гПа)
Po
(гПа)
Тmin
(С)
Tmax
(С)
R
(мм)
R24
(мм)
S
(см)
06 9.06 СЗ 1 50 км 10/3 1000 м
[Cu hum Ac As Ci sp]
+21.8 +11.4 52 +24 +30 комфорт 1003.9 967.7
09 9.06 З 3 20 км слаб. ливневой дождь, в посл. час гроза 10/8 300 м
[Cb cap Ac As]
+18.0 +14.0 77 +18 +19 1004.5 967.9
12 9.06 СВ 2 50 км гроза без осадков {ливн. осадки} 10/8 600 м
[Cb cap Ac As]
+18.2 +13.6 75 +19 +19 1004.5 967.9 +21.9 0.5
15 9.06 ЮЗ 1 50 км {гроза, ливн. осадки} 10/5 600 м
[Cb cap Ci fib]
+15.8 +10.7 72 +17 +17 1005.3 968.4
18 9.06 штиль 0 20 км {гроза, ливн. осадки} 10/3 600 м
[Cb cap Ac trans Ci fib]
+12.8 +10.5 86 +12 +12 1005.9 968.6
21 9.06 ЮЗ 1 20 км 10/1 600 м
[Cb cap Ac As Ci fib]
+11.6 +10.0 90 +11 +11 1006.2 968.7
00 10.06 Ю 1 50 км 4/0
[Ci fib]
+13.8 +10.8 82 +14 +16 1006.0 968.8 +11.0 0.1
03 10.06 З 3 50 км 8/6 600 м
[Cb cap Ci fib]
+18.0 +10.4 61 +18 +21 1006.1 969.3
06 10.06 З 4 50 км 10/8 600 м
[Cb cap Ci fib]
+19.8 +8.5 48 +21 +23 комфорт 1005.6 969.1
09 10.06 З 5 50 км 10/8 600 м
[Cb cap Ci fib]
+20.4 +7.9 44 +21 +22 комфорт 1005.1 968.7
12 10.06 штиль 0
{10}
50 км ?/? +21.0 +8.2 44 +22 +22 комфорт 1005.2 968.9 +22.4
15 10.06 З 3 50 км 4/3 600 м
[Cb cap Ac trans Ci fib]
+18.6 +7.4 48 +19 +19 1006.9 970.3
18 10.06 ЮЗ 2 20 км 6/4 600 м
[Cb cap Ac trans Ci fib]
+12.7 +9.1 79 +12 +12 1008.9 971.4
21 10.06 ЮЗ 2 20 км 8/4 600 м
[Cb cap Ac trans Ci fib]
+13.8 +8.9 72 +13 +13 1009.4 972.0
00 11.06 ЮЗ 3 50 км 9/8 600 м
[Cb cap Ac und Ci fib]
+15.6 +10.1 70 +15 +15 1010.2 973.0 +12.7
03 11.06 З 3 50 км 10/8 600 м
[Cb cap Ac und]
+17.0 +11.3 69 +17 +17 1011.3 974.3
06 11.06 З 4 50 км 10/8 600 м
[Cb cap Ac und]
+17.5 +10.8 65 +17 +18 1012.4 975.4
09 11.06 З 5
{11}
50 км 10/6 600 м
[Cb cap Ac As Cc]
+20.0 +9.5 51 +21 +22 комфорт 1012.6 975.9
12 11.06 ЮЗ 4
{11}
50 км 10/3 1000 м
[Cu hum Ac trans Ci fib]
+19.4 +10.1 55 +20 +21 1012.6 975.9 +21.0
15 11.06 ЮЗ 2 50 км 8/0
[Ac As Cc]
+17.4 +10.9 66 +18 +18 1013.7 976.7
18 11.06 Ю 1 20 км 8/0
[Ac As Ci fib]
+12.7 +10.0 84 +13 +13 1014.1 976.5
21 11.06 Ю 1 20 км 10/3 600 м
[Cb cap Ac As Ci fib]
+15.0 +11.5 80 +16 +16 1012.8 975.6
00 12.06 Ю 1 50 км 4/0
[Ci fib]
+17.6 +11.4 67 +19 +21 1012.0 975.0 +12.7
03 12.06 ЮЗ 4 50 км 6/5 600 м
[Cu med, cong Ci fib]
+21.4 +9.3 46 +23 +26 комфорт 1010.4 974.0
06 12.06 ЮЗ 4 50 км 6/5 1000 м
[Cu med, cong Ci sp]
+24.2 +8.6 37 +25 +30 комфорт 1008.5 972.4
09 12.06 ЮЗ 4
{10}
50 км 3/3 1000 м
[Cu med, cong Ci sp]
+25.8 +7.9 32 +26 +31 жарко 1006.5 970.7
12 12.06 ЮЗ 5
{11}
50 км 3/1 1000 м
[Cu med, cong Ci fib]
+25.3 +6.8 31 +25 +26 комфорт 1005.4 969.5 +26.3
15 12.06 ЮЗ 2 50 км 3/1 1000 м
[Cu hum Ci sp]
+21.8 +8.4 42 +23 +23 комфорт 1006.3 970.0
18 12.06 Ю 1 20 км 4/1 1000 м
[Cu hum Ci sp]
+13.0 +8.8 76 +13 +13 1006.8 969.4
21 12.06 Ю 1 20 км 8/3 1000 м
[Cu Sc Ac trans Ci fib]
+12.8 +8.8 77 +13 +13 1005.8 968.5
00 13.06 Ю 1 50 км 8/3 600 м
[Cb cap Cc]
+16.0 +9.7 66 +17 +18 1005.2 968.3 +11.6
03 13.06 Ю 3 50 км 6/0
[Ac trans Cc]
+23.5 +10.8 45 +25 +32 комфорт 1003.3 967.4
06 13.06 ЮЗ 6
{10}
50 км 8/6 600 м
[Cb cap Ci fib]
+26.7 +6.0 27 +26 +28 жарко 1002.0 966.5
09 13.06 ЮЗ 4
{10}
50 км 8/6 600 м
[Cb cap Ci fib]
+27.7 +5.6 24 +27 +29 жарко 1000.7 965.3
12 13.06 ЮЗ 4
{10}
50 км 6/4 600 м
[Cb cap Cc]
+27.2 +6.6 27 +27 +27 жарко 999.8 964.4 +28.3
15 13.06 ЮЗ 3 50 км 10/6 600 м
[Cb cap Ac trans Cs]
+23.0 +8.3 39 +24 +24 комфорт 1001.1 965.1
18 13.06 ЮВ 1 20 км в посл. час ливневой дождь 10/5 600 м
[Cb cap Ac trans Cs]
+18.0 +13.8 76 +19 +19 1001.0 964.6
21 13.06 штиль 0 20 км 10/3 1000 м
[Sc Cs]
+13.7 +11.5 87 +13 +13 1000.4 963.4
00 14.06 ЮВ 1 50 км 8/4 600 м
[Cb cap Ac trans Cs]
+17.6 +11.4 67 +19 +20 999.8 963.3 +12.7 0.5
03 14.06 З 5 50 км 8/8 600 м
[Cb cap Ac As Cc]
+21.4 +12.2 56 +24 +25 комфорт 1000.5 964.5
06 14.06 С 4 50 км 5/3 600 м
[Cb cap Ac und Ci fib]
+19.5 +13.0 66 +21 +27 комфорт 1002.1 965.7
09 14.06 СЗ 2 50 км 10/8 300 м
[Cb cap Ac lent Ci fib]
+17.0 +11.7 71 +17 +18 1003.9 967.0
12 14.06 СЗ 2 50 км 8/4 1000 м
[Cb cap Ac trans Ci fib]
+16.8 +11.5 71 +17 +18 1004.4 967.6 +22.9
15 14.06 СВ 1 50 км 8/0
[Ac lent Ci ing]
+15.1 +11.0 76 +16 +16 1005.0 968.1
18 14.06 ЮВ 2 20 км в посл. час ливневой дождь 9/6 600 м
[Cb cap Ac trans Ci fib]
+14.1 +11.7 85 +14 +14 1004.6 967.5
21 14.06 штиль 0 20 км 8/8 600 м
[Cb cap Ci fib]
+13.8 +11.2 84 +13 +13 1004.2 967.0
00 15.06 ЮВ 1 20 км в посл. час ливневой дождь 10/8 600 м
[Cb cap Ac As]
+14.8 +13.4 91 +15 +15 1003.9 966.9 +13.4 0.8
03 15.06 Ю 1 50 км в посл. час ливневой дождь {гроза} 10/4 600 м
[Cb cap Ac As Cc]
+17.1 +15.2 89 +18 +22 1003.1 966.5
06 15.06 СЗ 3 3700 м слаб. ливневой дождь {гроза} 10/6 600 м
[Cb cap Ac As]
+14.6 +13.2 91 +14 +15 1005.8 968.7
09 15.06 СЗ 3 50 км {ливн. осадки} 10/10 600 м
[Cb cap]
+14.1 +11.3 83 +13 +13 1007.3 970.2
12 15.06 СЗ 1 50 км {ливн. осадки} 9/6 600 м
[Cb cap Ac trans Cc]
+15.3 +10.8 75 +16 +17 1006.8 969.8 +18.3 8
15 15.06 штиль 0 50 км 10/9 720 м
[Cb cap Ac und]
+14.4 +10.8 79 +14 +14 1007.4 970.3
18 15.06 ЮВ 1 20 км 10/8 600 м
[Cb cap Ac und]
+12.9 +11.2 89 +13 +13 1007.4 970.0
21 15.06 ЮВ 1 20 км 10/8 600 м
[Cb cap Ac und]
+13.1 +11.4 89 +13 +13 1004.8 967.6
00 16.06 В 3 20 км 10/8 600 м
[Cb cap Ac und]
+15.0 +12.1 83 +14 +14 1003.1 966.2 +12.9

 

Местоположение метеостанции Шарыпово (Красноярский край, Россия): широта 55.53 долгота 89.20 высота над уровнем моря 319 м.

В архиве по умолчанию представлена погода в Шарыпово за последнюю неделю. Архивные данные за месяц целиком и за предыдущие месяцы, начиная с января 2011 года, Вы можете получить, выбрав интересующий диапазон дат из раскрывающегося списка и нажав кнопку "Ввод!".


*Определитесь, кто Вы:
робот инопланетянин человек

Внимание! Время в таблицах - всемирное. Для получения местного времени необходимо прибавить поправку, которая равна 7 ч.

Смотрите также архив погоды в соседних городах и на ближайших метеорологических станциях:

Погода в Ужуре (Красноярский край, Россия) (47 км)
Погода в Тисуле (Кемеровская область, Россия) (62 км)
Погода в Копьево-2 (Хакасия, Россия) (69 км)
Погода в Тяжине (Кемеровская область, Россия) (78 км)
Погода в Боготоле (Красноярский край, Россия) (81 км)
Погода в Назарово (Красноярский край, Россия) (89 км)
Погода в Ненастной (Хакасия, Россия) (90 км)
Погода в Центральном Руднике (Кемеровская область, Россия) (105 км)
Погода в Тюхтете (Красноярский край, Россия) (111 км)
Погода в Светлолобово (Красноярский край, Россия) (114 км)

Пояснения к столбцам:

Ветер - указаны скорость ветра в м/с - средняя за 10 мин, порывы в срок и между сроками (в фигурных скобках) и направление, откуда дует ветер: С - северный, СВ - северо-восточный, В - восточный, ЮВ - юго-восточный, Ю - южный, ЮЗ - юго-западный, З - западный, СЗ - северо-западный.
Видимость - горизонтальная дальность видимости в метрах или километрах. При видимости от 1 до 10 км при отсутствии осадков обычно наблюдается дымка, при ухудшении видимости до 1 км и менее - туман. В сухую погоду видимость может ухудшаться дымом, пылью или мглою.
Явления - указаны атмосферные явления, наблюдавшиеся в срок или в последний час перед сроком; фигурными скобками обозначены явления, наблюдавшиеся между сроками (за 1-3 часа до срока); квадратными скобками обозначены град или гололедные отложения с указанием их диаметра в мм.
Облачность - указаны через наклонную черту общая и нижняя облачность в баллах и высота нижней границы облаков в метрах; квадратными скобками обозначены формы облаков: Ci - перистые, Cs - перисто-слоистые, Cc - перисто-кучевые, Ac - высококучевые, As - высокослоистые, Sc - слоисто-кучевые, Ns - слоисто-дождевые, Cu - кучевые, Cb - кучево-дождевые. Подробнее классификацию облаков см. в Атласе облаков (PDF).
T - Температура воздуха - температура, измеренная на высоте 2 м над землей.
Td - Температура точки росы - температура, при понижении до которой содержащийся в воздухе водяной пар достигнет насыщения.
f - Относительная влажность воздуха - влажноcть воздуха, измеренная на высоте 2 м над землей.
Te - Эффективная температура - температура, которую ощущает одетый по сезону человек в тени. Характеристика душности погоды. При расчете учитывается влияние влажности воздуха и скорости ветра на теплоощущения человека.
Tes - Эффективная температура на солнце - температура, которую ощущает человек, с поправкой на солнечный нагрев. Характеристика знойности погоды. Зависит от высоты солнца над горизонтом, облачности и скорости ветра. Ночью, в пасмурную погоду, а также при ветре 12 м/с и более поправка равна нулю.
P - Атмосферное давление - приведенное к уровню моря атмосферное давление.
Po - Атмосферное давление - измеренное на уровне метеостанции атмосферное давление.
Tmin - Минимальная температура - минимум температуры воздуха на высоте 2 м над землей.
Tmax - Максимальная температура - максимум температуры воздуха на высоте 2 м над землей.
R - Количество осадков - Количество выпавших осадков за период времени, мм. При наведении курсора мыши на число - период времени, за который выпало указанное количество осадков.
R24 - Количество осадков - Количество выпавших осадков за 24 часа, мм.
S - Снежный покров - Высота снежного покрова, см. При наведении курсора мыши на число - состояние снежного покрова и степень покрытия местности в баллах.